Погода в Николо-Поломе

Россия / Костромская область     58°20′18″N   43°23′11″E
темп.,
°C
ветер,
м/с
пор.,
м/с
влажн.,
%
обл.,
%
осадки,
мм/ч
давл.,
гПа
погр.,
м
18 января, пн
пн1800:00−23зюз129626 0.0 101820
03:00−23юз229715 0.0 101920
06:00−22юз229670 0.0 101820
09:00−22ююз259780 0.0 101996
12:00−18юз249698 0.0 1019189
15:00−17юз229797 0.1 101962
18:00−20ююз239980 0.0 101965
21:00−20юз129985 0.1 101920
19 января, вт
вт1900:00−20ююз239991 0.1 101975
03:00−20зюз119988 0.1 101920
06:00−21ююз119999 0.0 101820
09:00−19ююз129897 0.1 101843
12:00−16юз119476 0.0 1017155
15:00−16зюз019686 0.1 101665
18:00−19ююз129983 0.1 101620
21:00−18з129789 0.1 101621
20 января, ср
ср2000:00−18з119891 0.1 101520
03:00−18зюз229894 0.1 101521
06:00−17з239788 0.1 101551
09:00−16з249782 0.1 1015116
12:00−12з259486 0.1 1014265
15:00−12з369593 0.2 1014314
18:00−13з379599 0.1 1015255
21:00−14з279598 0.2 1016236
21 января, чт
чт2100:00−15з279689 0.1 1016222
03:00−17зюз259790 0.1 1017124
06:00−19зюз239857 0.0 101648
09:00−18юз259879 0.0 1015100
12:00−15ю3695100 0.0 1013256
15:00−14ю4993100 0.1 1008335
18:00−12ююз41095100 3.1 1004805
21:00−11ююз2696100 5.8 1002367
22 января, пт
пт2200:00−11ююв0097100 0.9 100121
03:00−12ссв2496100 1.3 1002123
06:00−15ссв2695100 0.0 1004158
09:00−18ссв2396100 0.0 100866
12:00−16ссв2494100 0.0 1011245
15:00−16ссв259598 0.0 1013241
18:00−21св2596100 0.0 1016105
21:00−23св259693 0.0 1018101